[[{"header":{"parameterUnit":"m.s-1","parameterCategory":1,"la1":30.2991,"la2":30.254,"lo1":-89.0895,"lo2":-89.0444,"dy":0.0017,"dx":0.0017,"nx":28,"ny":28,"refTime":"2025-04-30T03:00:00:Z","depth":0,"parameterNumber":2,"parameterNumberName":"U-component_of_WINDS"},"data":[0,0,0,0,0,0,0,0,0,0,0,0,0,0,0,0,0,0,0,0,0,0,0,0,0,0,0,0,0,0,0,0,0,0,0,0,0,0,0,0,0,0,0,0,0,0,0,0,0,0,0,0,0,0,0,0,0,0,-2.3436,-2.3437,0,-2.3523,-2.3524,-2.3525,-2.3539,-2.3538,-2.3538,-2.3537,-2.3625,-2.3627,-2.3631,0,0,0,0,0,0,0,0,0,0,0,0,0,-2.3278,-2.3281,-2.3435,-2.3437,-2.3438,-2.3523,-2.3524,-2.3526,-2.3539,-2.3538,-2.3537,-2.3536,-2.3624,-2.3627,-2.3631,0,0,0,0,0,0,0,0,0,0,0,0,0,-2.3354,-2.3282,-2.3435,-2.3455,-2.3457,-2.3523,-2.3524,-2.3526,-2.3539,-2.3538,-2.3537,-2.3536,-2.3622,-2.3627,-2.3631,-2.3683,0,0,-2.3645,-2.3647,0,0,0,0,0,0,0,0,-2.335,-2.336,-2.3451,-2.3454,-2.3457,-2.3519,-2.3501,-2.3578,-2.354,-2.3508,-2.3537,-2.3535,-2.359,-2.3597,-2.3616,-2.3687,-2.3691,-2.3646,-2.3648,-2.365,-2.3652,0,0,0,0,0,0,0,-2.3345,-2.3356,-2.347,-2.3452,-2.3456,-2.3459,-2.3468,-2.3516,-2.3555,-2.3511,-2.3512,-2.3522,-2.3592,-2.3612,-2.3618,-2.3692,-2.3646,-2.365,-2.3652,-2.3654,-2.3809,-2.381,0,0,0,0,0,0,-2.3336,-2.3352,-2.3467,-2.3473,-2.3399,-2.3463,-2.3473,-2.35,-2.3554,-2.3561,-2.3523,-2.3523,-2.3605,-2.3613,-2.3622,-2.3685,-2.365,-2.3655,-2.3657,-2.3807,-2.3809,-2.3811,0,0,0,0,0,0,-2.3333,-2.3346,-2.3464,-2.3413,-2.3428,-2.3467,-2.3497,-2.3503,-2.3523,-2.3564,-2.357,-2.3537,-2.3604,-2.3615,-2.3668,-2.3688,-2.3657,-2.3661,-2.3806,-2.3808,-2.381,-2.3813,0,0,0,0,0,0,-2.3328,-2.3345,-2.3365,-2.3413,-2.3431,-2.3509,-2.3498,-2.3505,-2.3531,-2.3531,-2.3578,-2.3585,-2.3604,-2.3661,-2.3672,-2.3694,-2.3665,-2.3804,-2.3807,-2.3809,-2.3811,-2.3814,-2.3818,0,0,0,0,0,-2.3322,-2.3362,-2.3366,-2.338,-2.3457,-2.351,-2.352,-2.3542,-2.3533,-2.3553,-2.3579,-2.3583,-2.3684,-2.3666,-2.3679,-2.3703,-2.3803,-2.3806,-2.3809,-2.3809,-2.3814,-2.3818,0,0,0,0,0,0,-2.3315,-2.3369,-2.3374,-2.343,-2.3466,-2.3512,-2.3539,-2.3546,-2.3584,-2.3582,-2.3607,-2.3618,-2.3669,-2.3691,-2.3669,-2.3755,-2.3743,-2.3749,-2.3739,-2.3743,-2.3746,-2.374,-2.3668,0,0,0,0,0,-2.332,-2.3359,-2.3404,-2.3449,-2.3467,-2.35,-2.3524,-2.3538,-2.3575,-2.359,-2.362,-2.3655,-2.3695,-2.372,-2.3759,-2.3814,-2.3825,-2.3837,-2.384,-2.3843,-2.3847,-2.3878,-2.3884,-2.3821,-2.3821,-2.3821,0,0,-2.3331,-2.3365,-2.3388,-2.3449,-2.3478,-2.3517,-2.3512,-2.3554,-2.3584,-2.3596,-2.3647,-2.367,-2.3712,-2.3766,-2.3791,-2.3786,-2.3867,-2.3847,-2.3849,-2.3852,-2.3882,-2.3888,-2.3893,-2.3823,-2.3822,-2.3822,0,0,-2.337,-2.34,-2.3441,-2.347,-2.3515,-2.3536,-2.3546,-2.3592,-2.3608,-2.366,-2.367,-2.3705,-2.3773,-2.3802,-2.3826,-2.3877,-2.3882,-2.3889,-2.3906,-2.3935,-2.394,-2.3945,-2.3962,-2.3968,-2.3893,-2.3893,-2.3893,0,-2.3377,-2.3438,-2.3461,-2.3503,-2.3529,-2.3543,-2.3584,-2.3612,-2.3666,-2.3683,-2.3677,-2.3763,-2.3792,-2.3853,-2.3865,-2.3884,-2.3895,-2.3883,-2.3938,-2.3943,-2.3947,-2.3964,-2.3971,-2.3894,-2.3894,-2.3894,-2.3893,0,-2.3444,-2.3486,-2.3514,-2.3566,-2.3596,-2.3637,-2.3667,-2.3694,-2.3705,-2.3727,-2.378,-2.3815,-2.3861,-2.3877,-2.3888,-2.3939,-2.3935,-2.3933,-2.3921,-2.3953,-2.397,-2.3976,-2.3894,-2.3894,-2.3894,-2.3894,0,0,-2.348,-2.3546,-2.3556,-2.358,-2.363,-2.3662,-2.3704,-2.375,-2.3772,-2.381,-2.3845,-2.3902,-2.3901,-2.3928,-2.3943,-2.3969,-2.4006,-2.3964,-2.3965,-2.397,-2.4064,-2.4064,-2.4071,-2.401,-2.4012,-2.4013,-2.406,0,-2.3525,-2.3601,-2.3623,-2.3686,-2.3725,-2.3739,-2.3775,-2.381,-2.3832,-2.3867,-2.3891,-2.3932,-2.3927,-2.3944,-2.397,-2.3996,-2.4025,-2.3993,-2.4042,-2.4044,-2.4031,-2.408,-2.4081,-2.4124,-2.4067,-2.4068,-2.4069,0,-2.3587,-2.3626,-2.3693,-2.3738,-2.3755,-2.3788,-2.3831,-2.3866,-2.3905,-2.3919,-2.3949,-2.3962,-2.4005,-2.3992,-2.4052,-2.4029,-2.4051,-2.4067,-2.4069,-2.4074,-2.4058,-2.4085,-2.4138,-2.4144,-2.4079,-2.4078,-2.4077,0,-2.3606,-2.3675,-2.3724,-2.3745,-2.3798,-2.3821,-2.3844,-2.3882,-2.3908,-2.3947,-2.3964,-2.4006,-2.4029,-2.4062,-2.4085,-2.4073,-2.4143,-2.4131,-2.4155,-2.4155,-2.4169,-2.4167,-2.4225,-2.4184,-2.4184,-2.4184,-2.4184,0,-2.3653,-2.3694,-2.3734,-2.3764,-2.3809,-2.3835,-2.3879,-2.3903,-2.3937,-2.3971,-2.3986,-2.4018,-2.4048,-2.4084,-2.4102,-2.4149,-2.4159,-2.4172,-2.4176,-2.417,-2.4168,-2.4184,-2.4181,-2.4185,-2.4185,-2.4185,-2.4184,0,-2.3682,-2.371,-2.3765,-2.3811,-2.3824,-2.3856,-2.3895,-2.3925,-2.3948,-2.3991,-2.4003,-2.4038,-2.4081,-2.4109,-2.4163,-2.4176,-2.4227,-2.423,-2.4213,-2.4215,-2.4238,-2.4235,-2.4307,-2.4317,-2.4269,-2.427,-2.427,0,-2.371,-2.3741,-2.3791,-2.3816,-2.384,-2.3879,-2.3906,-2.3932,-2.3959,-2.4006,-2.403,-2.4074,-2.4111,-2.4179,-2.4209,-2.4251,-2.4255,-2.4277,-2.4261,-2.4254,-2.4255,-2.4252,-2.4255,-2.428,-2.428,-2.428,-2.4281,0,-2.3756,-2.3769,-2.3807,-2.385,-2.3882,-2.3917,-2.3953,-2.3972,-2.4004,-2.4034,-2.4078,-2.4107,-2.4163,-2.4206,-2.4251,-2.4274,-2.4283,-2.4286,-2.4293,-2.4287,-2.4276,-2.4282,-2.422,-2.4284,-2.4283,-2.4283,-2.4283,-2.4283,-2.3785,-2.3813,-2.3853,-2.3895,-2.3925,-2.3957,-2.3987,-2.4014,-2.4052,-2.41,-2.4113,-2.4159,-2.4197,-2.4258,-2.4283,-2.4319,-2.4316,-2.4327,-2.433,-2.4332,-2.4332,-2.4271,-2.4327,-2.4327,-2.4327,-2.4327,-2.4327,0,-2.3831,-2.3858,-2.3896,-2.3945,-2.3978,-2.3984,-2.4024,-2.4051,-2.4092,-2.4127,-2.4163,-2.4214,-2.4256,-2.429,-2.4333,-2.4356,-2.436,-2.4366,-2.4364,-2.4369,-2.4332,-2.4321,-2.4361,-2.4361,-2.4361,-2.4361,-2.4361,-2.4361,-2.3859,-2.3908,-2.3925,-2.3988,-2.4014,-2.406,-2.4082,-2.4112,-2.414,-2.4197,-2.4232,-2.4254,-2.4289,-2.4335,-2.4373,-2.4382,-2.4397,-2.4402,-2.4411,-2.4376,-2.4372,-2.4368,-2.4358,-2.4405,-2.4405,-2.4445,-2.4445,-2.4446]},{"header":{"parameterUnit":"m.s-1","parameterCategory":1,"la1":30.2991,"la2":30.254,"lo1":-89.0895,"lo2":-89.0444,"dy":0.0017,"dx":0.0017,"nx":28,"ny":28,"refTime":"2025-04-30T03:00:00:Z","depth":0,"parameterNumber":3,"parameterNumberName":"V-component_of_WINDS"},"data":[0,0,0,0,0,0,0,0,0,0,0,0,0,0,0,0,0,0,0,0,0,0,0,0,0,0,0,0,0,0,0,0,0,0,0,0,0,0,0,0,0,0,0,0,0,0,0,0,0,0,0,0,0,0,0,0,0,0,5.5018,5.5019,0,5.5074,5.5074,5.5075,5.5084,5.5084,5.5083,5.5083,5.5135,5.5136,5.5138,0,0,0,0,0,0,0,0,0,0,0,0,0,5.4917,5.4919,5.5018,5.5019,5.502,5.5074,5.5074,5.5075,5.5084,5.5084,5.5083,5.5083,5.5134,5.5136,5.5138,0,0,0,0,0,0,0,0,0,0,0,0,0,5.4965,5.4919,5.5018,5.5031,5.5033,5.5074,5.5074,5.5075,5.5084,5.5084,5.5083,5.5082,5.5133,5.5136,5.5139,5.5169,0,0,5.5147,5.5148,0,0,0,0,0,0,0,0,5.4963,5.4969,5.5028,5.503,5.5032,5.5072,5.5058,5.5107,5.5085,5.5065,5.5083,5.5082,5.5114,5.5118,5.513,5.5171,5.5174,5.5147,5.5149,5.515,5.5151,0,0,0,0,0,0,0,5.4959,5.4967,5.504,5.5029,5.5031,5.5033,5.5039,5.5067,5.5092,5.5066,5.5067,5.5074,5.5115,5.5127,5.5131,5.5174,5.5147,5.5149,5.5151,5.5152,5.5246,5.5247,0,0,0,0,0,0,5.4954,5.4964,5.5038,5.5042,5.4995,5.5035,5.5042,5.5059,5.5092,5.5096,5.5074,5.5074,5.5123,5.5128,5.5133,5.5172,5.515,5.5152,5.5154,5.5245,5.5246,5.5247,0,0,0,0,0,0,5.4952,5.4961,5.5036,5.5003,5.5013,5.5038,5.5057,5.5061,5.5074,5.5098,5.5102,5.5083,5.5123,5.5129,5.5161,5.5174,5.5154,5.5156,5.5244,5.5245,5.5246,5.525,0,0,0,0,0,0,5.4949,5.496,5.4972,5.5003,5.5015,5.5064,5.5058,5.5062,5.5079,5.5079,5.5107,5.5111,5.5122,5.5157,5.5163,5.5177,5.5158,5.5243,5.5245,5.5246,5.5249,5.5251,5.5253,0,0,0,0,0,5.4945,5.4969,5.4973,5.4982,5.5031,5.5065,5.5071,5.5085,5.508,5.5092,5.5108,5.511,5.5172,5.516,5.5168,5.5182,5.5242,5.5244,5.5246,5.5248,5.5251,5.5253,0,0,0,0,0,0,5.4936,5.4974,5.4978,5.5013,5.5036,5.5066,5.5082,5.5087,5.5111,5.511,5.5125,5.5131,5.5162,5.5175,5.5162,5.5215,5.5206,5.521,5.5205,5.5208,5.521,5.5206,5.516,0,0,0,0,0,5.4939,5.4965,5.4995,5.5023,5.5035,5.5057,5.5072,5.5081,5.5105,5.5114,5.5132,5.5154,5.5178,5.5194,5.5217,5.5251,5.5257,5.5265,5.5267,5.5269,5.5272,5.5292,5.5296,5.5253,5.5253,5.5253,0,0,5.4944,5.4967,5.4982,5.5022,5.5041,5.5067,5.5065,5.5091,5.511,5.5117,5.5149,5.5164,5.5189,5.5222,5.5238,5.5234,5.5285,5.5271,5.5273,5.5275,5.5294,5.5298,5.5302,5.5255,5.5254,5.5254,0,0,5.4966,5.4986,5.5013,5.5033,5.5062,5.5077,5.5084,5.5114,5.5125,5.5157,5.5164,5.5186,5.5227,5.5246,5.526,5.5292,5.5295,5.5299,5.5311,5.533,5.5334,5.5337,5.5349,5.5353,5.5302,5.5302,5.5302,0,5.4967,5.5008,5.5025,5.5053,5.507,5.5081,5.5108,5.5125,5.516,5.5172,5.5168,5.5222,5.5239,5.5278,5.5286,5.5297,5.5305,5.5296,5.5332,5.5335,5.5338,5.535,5.5355,5.5303,5.5302,5.5302,5.5302,0,5.5009,5.5037,5.5055,5.5091,5.5111,5.5138,5.5159,5.5176,5.5184,5.5199,5.5233,5.5255,5.5284,5.5294,5.5301,5.5334,5.5331,5.5329,5.5321,5.5343,5.5354,5.5359,5.5303,5.5303,5.5303,5.5303,0,0,5.5025,5.5073,5.508,5.5097,5.5132,5.5154,5.5181,5.5212,5.5227,5.5251,5.5275,5.5311,5.5311,5.5327,5.5337,5.5354,5.5379,5.535,5.5351,5.5355,5.5418,5.5419,5.5424,5.5382,5.5382,5.5383,5.5416,0,5.5052,5.5104,5.5121,5.5163,5.519,5.5202,5.5226,5.5249,5.5265,5.5288,5.5304,5.533,5.5327,5.5338,5.5355,5.5372,5.5392,5.537,5.5403,5.5404,5.5397,5.543,5.5431,5.5461,5.542,5.5421,5.5422,0,5.5089,5.5117,5.5163,5.5197,5.5209,5.5231,5.5261,5.5284,5.5311,5.5321,5.5342,5.535,5.5379,5.537,5.541,5.5395,5.5409,5.542,5.5421,5.5425,5.5414,5.5435,5.547,5.5475,5.5429,5.5428,5.5428,0,5.5098,5.5147,5.5181,5.5196,5.5236,5.5251,5.5268,5.5295,5.5313,5.5339,5.5351,5.5379,5.5395,5.5417,5.5433,5.5424,5.5472,5.5463,5.548,5.548,5.5489,5.5488,5.5528,5.5498,5.5498,5.5498,5.5498,0,5.5126,5.5154,5.5186,5.5207,5.5239,5.5259,5.5289,5.5306,5.5331,5.5355,5.5365,5.5387,5.5407,5.5432,5.5444,5.5476,5.5483,5.5491,5.5494,5.5491,5.549,5.55,5.5499,5.5499,5.5499,5.5499,5.5499,0,5.514,5.5163,5.5202,5.5238,5.5247,5.5269,5.5299,5.532,5.5337,5.5367,5.5375,5.5401,5.5431,5.5449,5.5486,5.5495,5.553,5.5532,5.5521,5.5523,5.5539,5.5538,5.5587,5.5595,5.5559,5.5559,5.556,0,5.5157,5.5179,5.5219,5.5237,5.5255,5.5284,5.5303,5.5324,5.5343,5.5377,5.5394,5.5425,5.5451,5.5498,5.5519,5.5547,5.555,5.5566,5.5554,5.5551,5.5551,5.555,5.5553,5.5567,5.5568,5.5568,5.5568,0,5.5184,5.5195,5.5224,5.5258,5.5282,5.5308,5.5335,5.5348,5.5373,5.5395,5.5427,5.5447,5.5487,5.5517,5.5548,5.5564,5.5571,5.5572,5.5578,5.5574,5.5567,5.5572,5.5527,5.5571,5.557,5.557,5.557,5.557,5.5201,5.5222,5.5254,5.5286,5.5309,5.5334,5.5356,5.5377,5.5405,5.544,5.545,5.5484,5.5511,5.5554,5.5571,5.5597,5.5595,5.5603,5.5605,5.5606,5.5607,5.5564,5.5603,5.5603,5.5603,5.5603,5.5602,0,5.523,5.5252,5.5281,5.532,5.5345,5.5351,5.5381,5.5402,5.5432,5.5459,5.5485,5.5522,5.5553,5.5577,5.5608,5.5624,5.5628,5.5632,5.5631,5.5635,5.5607,5.56,5.5629,5.5629,5.5629,5.5628,5.5628,5.5628,5.5248,5.5284,5.5299,5.5348,5.5369,5.5404,5.5421,5.5444,5.5466,5.5508,5.5534,5.5551,5.5576,5.561,5.5638,5.5644,5.5655,5.5659,5.5666,5.5639,5.5636,5.5634,5.5627,5.5661,5.5661,5.5691,5.5692,5.5692]}]]